UAE72V OMDB-EGKK

Flight info

Callsign UAE72V
Flight time N/A
Altitude 34000
Route RIDAP M557 TUMAK L602 GADSI M860 SEPTU DCT VUSEB/N0489F360 M860 NINVA UM860 ODALI UL852 NEGEM L852 KOMAN DCT TEGRI DCT BEGLA DCT DEXIT/N0482F380 DCT INBED DCT BOMBI DCT ADKUV DCT KENUM DCT DENUT L610 TEBRA
Aircraft B77W/H-SDE1E2E3FGHIJ2J3J4J5M1RWXY/LB1D1

Departure

Time N/A
Airport Dubai International Airport (OMDB)

Arrival

Time 2026-05-06 09:55
Airport London Gatwick Airport (EGKK)
Time Latitude Longitude Altitude Speed Heading
2026-05-06 07:35 45.59459 22.70116 36024 ft 440 kts 302°
2026-05-06 07:35 45.61066 22.66383 36027 ft 438 kts 302°
2026-05-06 07:35 45.64245 22.58979 36032 ft 440 kts 302°
2026-05-06 07:36 45.67422 22.51561 36036 ft 438 kts 302°
2026-05-06 07:37 45.73976 22.36197 36031 ft 439 kts 302°
2026-05-06 07:37 45.77156 22.28713 36032 ft 439 kts 301°
2026-05-06 07:38 45.80318 22.21251 36026 ft 437 kts 301°
2026-05-06 07:38 45.83474 22.13782 36020 ft 438 kts 301°
2026-05-06 07:39 45.86633 22.06286 36020 ft 438 kts 301°
2026-05-06 07:39 45.89769 21.98826 36021 ft 439 kts 301°
2026-05-06 07:40 45.92899 21.91359 36017 ft 439 kts 301°
2026-05-06 07:40 45.96033 21.83862 36012 ft 438 kts 301°
2026-05-06 07:41 45.99182 21.76309 36017 ft 438 kts 301°
2026-05-06 07:41 46.02300 21.68810 36010 ft 439 kts 301°
2026-05-06 07:42 46.05434 21.61253 36000 ft 439 kts 301°
2026-05-06 07:42 46.08542 21.53738 36005 ft 438 kts 301°
2026-05-06 07:43 46.11692 21.46099 35998 ft 439 kts 301°
2026-05-06 07:43 46.14788 21.38574 36003 ft 437 kts 301°
2026-05-06 07:44 46.17912 21.30957 36003 ft 437 kts 300°
2026-05-06 07:44 46.21005 21.23394 36000 ft 438 kts 300°
2026-05-06 07:45 46.24101 21.15807 35991 ft 437 kts 300°
2026-05-06 07:45 46.27189 21.08248 35988 ft 438 kts 300°
2026-05-06 07:46 46.30364 21.00730 35985 ft 440 kts 301°
2026-05-06 07:46 46.33546 20.93176 35983 ft 440 kts 300°
2026-05-06 07:47 46.36708 20.85643 35983 ft 439 kts 300°
2026-05-06 07:47 46.39868 20.78089 35982 ft 438 kts 300°
2026-05-06 07:48 46.43039 20.70486 35982 ft 445 kts 300°
2026-05-06 07:48 46.46222 20.62830 35975 ft 444 kts 300°
2026-05-06 07:49 46.49403 20.55158 35972 ft 443 kts 300°
2026-05-06 07:49 46.52565 20.47512 35972 ft 444 kts 300°
2026-05-06 07:50 46.55738 20.39815 35964 ft 445 kts 300°
2026-05-06 07:50 46.58913 20.32092 35971 ft 444 kts 299°
2026-05-06 07:51 46.62071 20.24392 35970 ft 445 kts 299°
2026-05-06 07:51 46.65238 20.16645 35965 ft 445 kts 299°
2026-05-06 07:52 46.68376 20.08948 35963 ft 444 kts 298°
2026-05-06 07:52 46.71538 20.01168 35958 ft 444 kts 298°
2026-05-06 07:53 46.74678 19.93425 35956 ft 446 kts 298°
2026-05-06 07:53 46.77825 19.85639 35955 ft 447 kts 298°
2026-05-06 07:54 46.80949 19.77890 35955 ft 447 kts 298°
2026-05-06 07:54 46.84096 19.70060 35953 ft 447 kts 298°
2026-05-06 07:55 46.87241 19.62214 35952 ft 449 kts 298°
2026-05-06 07:55 46.90371 19.54383 35951 ft 448 kts 298°
2026-05-06 07:56 46.93496 19.46541 35948 ft 448 kts 298°
2026-05-06 07:56 46.96614 19.38694 35945 ft 448 kts 298°
2026-05-06 07:57 46.99779 19.30704 35946 ft 447 kts 297°
2026-05-06 07:57 47.02889 19.22834 35940 ft 449 kts 297°
2026-05-06 07:58 47.06007 19.14916 35939 ft 449 kts 297°
2026-05-06 07:58 47.09119 19.06991 35932 ft 451 kts 297°
2026-05-06 07:59 47.12254 18.98987 35930 ft 450 kts 297°
2026-05-06 07:59 47.15380 18.90980 35921 ft 450 kts 297°
2026-05-06 08:00 47.18473 18.83034 35923 ft 450 kts 297°
2026-05-06 08:00 47.21579 18.75034 35912 ft 450 kts 297°
2026-05-06 08:01 47.24686 18.67003 35911 ft 452 kts 297°
2026-05-06 08:01 47.27793 18.58952 35910 ft 452 kts 297°
2026-05-06 08:02 47.30881 18.50925 35908 ft 453 kts 296°
2026-05-06 08:02 47.33985 18.42831 35907 ft 453 kts 296°
2026-05-06 08:03 47.37084 18.34726 35915 ft 453 kts 296°
2026-05-06 08:03 47.40182 18.26601 35908 ft 452 kts 296°
2026-05-06 08:04 47.43250 18.18527 35906 ft 454 kts 296°
2026-05-06 08:04 47.46330 18.10401 35901 ft 453 kts 296°
2026-05-06 08:05 47.49406 18.02257 35901 ft 454 kts 296°
2026-05-06 08:05 47.52494 17.94057 35903 ft 458 kts 296°
2026-05-06 08:06 47.55636 17.85683 35900 ft 473 kts 296°
2026-05-06 08:06 47.58870 17.77041 35897 ft 482 kts 296°
2026-05-06 08:07 47.62059 17.68499 35899 ft 472 kts 296°
2026-05-06 08:07 47.65223 17.59995 35895 ft 472 kts 296°
2026-05-06 08:08 47.68383 17.51470 35889 ft 469 kts 296°
2026-05-06 08:08 47.71502 17.43026 35883 ft 473 kts 296°
2026-05-06 08:09 47.74652 17.34475 35872 ft 472 kts 295°
2026-05-06 08:09 47.77817 17.25853 35881 ft 472 kts 295°
2026-05-06 08:10 47.80949 17.17294 35873 ft 473 kts 295°
2026-05-06 08:10 47.83906 17.08564 35863 ft 471 kts 290°
2026-05-06 08:11 47.86522 16.99677 35872 ft 470 kts 290°
2026-05-06 08:11 47.89125 16.90770 35856 ft 471 kts 290°
2026-05-06 08:12 47.91736 16.81792 35856 ft 470 kts 290°
2026-05-06 08:12 47.94322 16.72866 35856 ft 471 kts 290°
2026-05-06 08:13 47.96934 16.63814 35852 ft 472 kts 290°
2026-05-06 08:13 47.99508 16.54860 35845 ft 473 kts 290°
2026-05-06 08:14 48.02031 16.46053 35846 ft 472 kts 290°
2026-05-06 08:14 48.04606 16.37027 35836 ft 471 kts 290°
2026-05-06 08:15 48.07196 16.27916 35842 ft 472 kts 289°
2026-05-06 08:15 48.09754 16.18885 35841 ft 471 kts 289°
2026-05-06 08:16 48.12282 16.09923 35833 ft 472 kts 289°
2026-05-06 08:16 48.14832 16.00850 35829 ft 471 kts 289°
2026-05-06 08:17 48.17372 15.91777 35836 ft 471 kts 289°
2026-05-06 08:17 48.19899 15.82719 35835 ft 472 kts 289°
2026-05-06 08:18 48.22398 15.73727 35824 ft 470 kts 289°
2026-05-06 08:18 48.24920 15.64618 35818 ft 469 kts 288°
2026-05-06 08:19 48.27400 15.55622 35825 ft 468 kts 288°
2026-05-06 08:19 48.29886 15.46572 35829 ft 469 kts 288°
2026-05-06 08:20 48.32362 15.37524 35826 ft 470 kts 288°
2026-05-06 08:20 48.34840 15.28435 35833 ft 468 kts 288°
2026-05-06 08:21 48.37311 15.19337 35835 ft 468 kts 288°
2026-05-06 08:21 48.39764 15.10268 35833 ft 468 kts 288°
2026-05-06 08:22 48.42219 15.01159 35835 ft 466 kts 288°
2026-05-06 08:22 48.44640 14.92138 35835 ft 467 kts 287°
2026-05-06 08:23 48.47065 14.83069 35836 ft 466 kts 287°
2026-05-06 08:23 48.49489 14.73968 35834 ft 467 kts 287°
2026-05-06 08:24 48.51899 14.64885 35829 ft 467 kts 287°
2026-05-06 08:24 48.54296 14.55814 35827 ft 466 kts 287°
2026-05-06 08:25 48.56676 14.46772 35814 ft 466 kts 287°
2026-05-06 08:25 48.59071 14.37636 35809 ft 466 kts 287°
2026-05-06 08:26 48.61467 14.28463 35817 ft 464 kts 286°
2026-05-06 08:26 48.63841 14.19337 35816 ft 465 kts 286°
2026-05-06 08:27 48.66202 14.10221 35817 ft 465 kts 286°
2026-05-06 08:27 48.68566 14.01060 35815 ft 466 kts 286°
2026-05-06 08:28 48.70906 13.91956 35819 ft 464 kts 286°
2026-05-06 08:28 48.73243 13.82827 35812 ft 467 kts 286°
2026-05-06 08:29 48.75566 13.73718 35806 ft 465 kts 286°
2026-05-06 08:29 48.77837 13.64525 35813 ft 464 kts 285°
2026-05-06 08:30 48.80025 13.55342 35811 ft 463 kts 285°
2026-05-06 08:30 48.82214 13.46137 35808 ft 464 kts 285°
2026-05-06 08:31 48.84399 13.36920 35815 ft 464 kts 285°
2026-05-06 08:31 48.86557 13.27789 35819 ft 464 kts 284°
2026-05-06 08:32 48.88742 13.18506 35826 ft 463 kts 284°
2026-05-06 08:32 48.90909 13.09258 35824 ft 464 kts 284°
2026-05-06 08:33 48.93054 13.00070 35822 ft 463 kts 284°
2026-05-06 08:33 48.95213 12.90780 35819 ft 463 kts 284°
2026-05-06 08:34 48.98418 12.76914 35820 ft 465 kts 284°
2026-05-06 08:35 49.00549 12.67650 35809 ft 464 kts 284°
2026-05-06 08:35 49.02673 12.58371 35819 ft 464 kts 284°
2026-05-06 08:36 49.04797 12.49047 35801 ft 467 kts 284°
2026-05-06 08:36 49.06926 12.39669 35806 ft 466 kts 284°
2026-05-06 08:37 49.09054 12.30250 35798 ft 467 kts 283°
2026-05-06 08:37 49.11158 12.20897 35793 ft 466 kts 283°
2026-05-06 08:38 49.13282 12.11412 35795 ft 467 kts 283°
2026-05-06 08:38 49.15370 12.02046 35786 ft 467 kts 284°
2026-05-06 08:39 49.17451 11.92669 35796 ft 468 kts 284°
2026-05-06 08:39 49.19552 11.83160 35803 ft 470 kts 284°
2026-05-06 08:40 49.21634 11.73692 35807 ft 470 kts 284°
2026-05-06 08:40 49.23721 11.64156 35805 ft 470 kts 284°
2026-05-06 08:41 49.25792 11.54651 35793 ft 472 kts 284°
2026-05-06 08:41 49.27852 11.45156 35790 ft 472 kts 284°
2026-05-06 08:42 49.29921 11.35572 35786 ft 472 kts 284°
2026-05-06 08:42 49.31989 11.25950 35800 ft 474 kts 283°
2026-05-06 08:43 49.34057 11.16280 35801 ft 474 kts 283°
2026-05-06 08:43 49.36099 11.06689 35804 ft 474 kts 283°
2026-05-06 08:44 49.38138 10.97063 35806 ft 474 kts 283°
2026-05-06 08:44 49.40772 10.87752 35796 ft 483 kts 292°
2026-05-06 08:45 49.43795 10.78534 35792 ft 482 kts 292°
2026-05-06 08:45 49.46801 10.69293 35778 ft 484 kts 292°
2026-05-06 08:46 49.49778 10.60090 35783 ft 483 kts 292°
2026-05-06 08:46 49.51276 10.55439 36065 ft 483 kts 292°
2026-05-06 08:46 49.52769 10.50790 35846 ft 484 kts 292°
2026-05-06 08:47 49.55728 10.41554 35794 ft 482 kts 292°
2026-05-06 08:47 49.58675 10.32309 35793 ft 482 kts 291°
2026-05-06 08:48 49.61645 10.22962 35798 ft 482 kts 291°
2026-05-06 08:48 49.64586 10.13667 35795 ft 482 kts 291°
2026-05-06 08:49 49.67527 10.04337 35794 ft 483 kts 291°
2026-05-06 08:49 49.70474 9.94952 35794 ft 483 kts 291°
2026-05-06 08:50 49.73409 9.85569 35787 ft 484 kts 292°
2026-05-06 08:50 49.76329 9.76201 35781 ft 483 kts 292°
2026-05-06 08:51 49.79239 9.66830 35787 ft 484 kts 292°
2026-05-06 08:51 49.82149 9.57419 35788 ft 484 kts 292°
2026-05-06 08:52 49.85046 9.48016 35786 ft 485 kts 292°
2026-05-06 08:52 49.87951 9.38554 35779 ft 484 kts 292°
2026-05-06 08:53 49.90859 9.29041 35780 ft 484 kts 292°
2026-05-06 08:53 49.93787 9.19429 35776 ft 483 kts 292°
2026-05-06 08:54 49.96651 9.09986 35772 ft 485 kts 292°
2026-05-06 08:54 49.99421 9.00822 35764 ft 486 kts 292°
2026-05-06 08:55 50.02284 8.91312 35767 ft 485 kts 292°
2026-05-06 08:55 50.05131 8.81813 35774 ft 485 kts 292°
2026-05-06 08:56 50.07579 8.71979 35776 ft 484 kts 288°
2026-05-06 08:56 50.09893 8.62191 35779 ft 484 kts 288°
2026-05-06 08:57 50.12213 8.52329 35901 ft 484 kts 288°
2026-05-06 08:57 50.13371 8.47389 36006 ft 486 kts 288°
2026-05-06 08:57 50.14540 8.42393 36117 ft 485 kts 288°
2026-05-06 08:57 50.15698 8.37431 36225 ft 485 kts 288°
2026-05-06 08:58 50.16788 8.32751 36333 ft 486 kts 287°
2026-05-06 08:58 50.17962 8.27699 36447 ft 486 kts 287°
2026-05-06 08:58 50.19096 8.22810 36566 ft 485 kts 287°
2026-05-06 08:58 50.20247 8.17831 36677 ft 486 kts 287°
2026-05-06 08:59 50.21400 8.12836 36786 ft 486 kts 287°
2026-05-06 08:59 50.22549 8.07845 36897 ft 486 kts 287°
2026-05-06 08:59 50.23700 8.02834 37009 ft 487 kts 287°
2026-05-06 08:59 50.24835 7.97880 37122 ft 488 kts 287°
2026-05-06 09:00 50.25977 7.92886 37229 ft 488 kts 287°
2026-05-06 09:00 50.27111 7.87913 37346 ft 488 kts 287°
2026-05-06 09:00 50.28252 7.82896 37464 ft 489 kts 287°
2026-05-06 09:00 50.29400 7.77842 37575 ft 489 kts 287°
2026-05-06 09:01 50.30535 7.72831 37685 ft 490 kts 287°
2026-05-06 09:01 50.32791 7.62833 37770 ft 485 kts 287°
2026-05-06 09:02 50.35030 7.52868 37773 ft 484 kts 287°
2026-05-06 09:02 50.37244 7.42961 37775 ft 483 kts 287°
2026-05-06 09:03 50.39469 7.32960 37778 ft 483 kts 286°
2026-05-06 09:03 50.41686 7.22946 37785 ft 483 kts 286°
2026-05-06 09:04 50.43881 7.12985 37780 ft 482 kts 286°
2026-05-06 09:04 50.45930 7.03639 37783 ft 482 kts 286°
2026-05-06 09:05 50.48101 6.93691 37776 ft 483 kts 286°
2026-05-06 09:05 50.50291 6.83683 37773 ft 484 kts 289°
2026-05-06 09:06 50.53430 6.74298 37784 ft 488 kts 298°
2026-05-06 09:06 50.56908 6.65112 37787 ft 488 kts 298°
2026-05-06 09:07 50.60359 6.55936 37789 ft 488 kts 298°
2026-05-06 09:07 50.63814 6.46690 37788 ft 489 kts 298°
2026-05-06 09:08 50.67249 6.37454 37796 ft 488 kts 298°
2026-05-06 09:08 50.70542 6.28562 37804 ft 488 kts 298°
2026-05-06 09:09 50.73316 6.18870 37810 ft 486 kts 287°
2026-05-06 09:09 50.75455 6.08792 37806 ft 486 kts 286°
2026-05-06 09:10 50.77562 5.98763 37814 ft 485 kts 286°
2026-05-06 09:10 50.79675 5.88656 37821 ft 485 kts 286°
2026-05-06 09:11 50.81784 5.78519 37825 ft 485 kts 286°
2026-05-06 09:11 50.83883 5.68377 37828 ft 485 kts 286°
2026-05-06 09:12 50.85968 5.58254 37830 ft 485 kts 287°
2026-05-06 09:12 50.88044 5.48121 37831 ft 486 kts 287°
2026-05-06 09:13 50.90126 5.37908 37826 ft 486 kts 287°
2026-05-06 09:13 50.92148 5.27936 37831 ft 487 kts 286°
2026-05-06 09:14 50.94218 5.17679 37835 ft 486 kts 286°
2026-05-06 09:14 50.96234 5.07629 37843 ft 485 kts 286°
2026-05-06 09:15 50.98186 4.97859 37846 ft 485 kts 286°
2026-05-06 09:15 51.00231 4.87563 37854 ft 485 kts 286°
2026-05-06 09:16 51.02207 4.77565 37856 ft 485 kts 286°
2026-05-06 09:16 51.04198 4.67438 37859 ft 486 kts 286°
2026-05-06 09:17 51.06216 4.57116 37864 ft 487 kts 286°
2026-05-06 09:17 51.08210 4.46868 37865 ft 487 kts 286°
2026-05-06 09:18 51.10164 4.36770 37870 ft 486 kts 286°
2026-05-06 09:18 51.12115 4.26632 37861 ft 485 kts 285°
2026-05-06 09:19 51.14003 4.16767 37868 ft 485 kts 285°
2026-05-06 09:19 51.15971 4.06435 37874 ft 485 kts 285°
2026-05-06 09:20 51.17923 3.96128 37872 ft 485 kts 285°
2026-05-06 09:20 51.19862 3.85833 37876 ft 485 kts 285°
2026-05-06 09:21 51.21779 3.75596 37881 ft 486 kts 285°
2026-05-06 09:21 51.23648 3.65260 37878 ft 485 kts 282°
2026-05-06 09:22 51.25064 3.54872 37889 ft 483 kts 281°
2026-05-06 09:22 51.26456 3.44373 37890 ft 483 kts 281°
2026-05-06 09:23 51.27723 3.34684 37829 ft 474 kts 280°
2026-05-06 09:23 51.28392 3.29481 37394 ft 472 kts 280°
2026-05-06 09:23 51.29050 3.24343 36698 ft 479 kts 281°
2026-05-06 09:23 51.29722 3.19074 35985 ft 485 kts 281°
2026-05-06 09:24 51.30391 3.13812 35383 ft 486 kts 281°
2026-05-06 09:24 51.31056 3.08572 34795 ft 485 kts 281°
2026-05-06 09:24 51.31724 3.03280 34079 ft 485 kts 281°
2026-05-06 09:24 51.32384 2.98042 33200 ft 487 kts 280°
2026-05-06 09:25 51.33047 2.92752 32238 ft 490 kts 280°
2026-05-06 09:25 51.33711 2.87435 31293 ft 492 kts 280°
2026-05-06 09:25 51.34367 2.82164 30591 ft 485 kts 280°
2026-05-06 09:25 51.35017 2.76918 29652 ft 474 kts 280°
2026-05-06 09:26 51.35648 2.71819 29038 ft 468 kts 280°
2026-05-06 09:26 51.36272 2.66769 28907 ft 466 kts 280°
2026-05-06 09:26 51.36904 2.61629 28904 ft 473 kts 280°
2026-05-06 09:27 51.38150 2.51457 28445 ft 457 kts 280°
2026-05-06 09:27 51.38749 2.46541 27423 ft 450 kts 280°
2026-05-06 09:27 51.39336 2.41703 26253 ft 446 kts 281°
2026-05-06 09:27 51.39922 2.36849 25366 ft 444 kts 281°
2026-05-06 09:28 51.40433 2.32605 25159 ft 434 kts 280°
2026-05-06 09:28 51.41015 2.27753 25053 ft 444 kts 280°
2026-05-06 09:28 51.41586 2.23016 24732 ft 444 kts 280°
2026-05-06 09:28 51.42180 2.18163 24334 ft 439 kts 280°
2026-05-06 09:29 51.42760 2.13419 23953 ft 434 kts 280°
2026-05-06 09:29 51.43333 2.08719 23596 ft 432 kts 280°
2026-05-06 09:29 51.43900 2.04039 23233 ft 429 kts 281°
2026-05-06 09:29 51.44459 1.99403 22858 ft 427 kts 281°
2026-05-06 09:30 51.45016 1.94719 22493 ft 424 kts 281°
2026-05-06 09:30 51.45554 1.90148 22128 ft 421 kts 281°
2026-05-06 09:30 51.46092 1.85557 21744 ft 419 kts 281°
2026-05-06 09:30 51.46623 1.80984 20966 ft 422 kts 281°
2026-05-06 09:31 51.47154 1.76391 20169 ft 422 kts 281°
2026-05-06 09:31 51.47684 1.71791 19416 ft 420 kts 281°
2026-05-06 09:31 51.48193 1.67195 18687 ft 418 kts 278°
2026-05-06 09:31 51.48332 1.62594 17971 ft 415 kts 268°
2026-05-06 09:32 51.47950 1.58055 17260 ft 413 kts 258°
2026-05-06 09:32 51.47110 1.53699 16556 ft 410 kts 251°
2026-05-06 09:32 51.45917 1.49623 16253 ft 398 kts 241°
2026-05-06 09:32 51.44465 1.45958 16239 ft 378 kts 238°
2026-05-06 09:33 51.43045 1.42473 16234 ft 377 kts 238°
2026-05-06 09:33 51.41570 1.38853 16240 ft 390 kts 238°
2026-05-06 09:33 51.40086 1.35221 16241 ft 391 kts 238°
2026-05-06 09:33 51.38579 1.31537 16239 ft 391 kts 237°
2026-05-06 09:34 51.37061 1.27832 16242 ft 391 kts 237°
2026-05-06 09:34 51.35572 1.24203 16241 ft 391 kts 238°
2026-05-06 09:34 51.34080 1.20569 16239 ft 391 kts 237°
2026-05-06 09:34 51.32578 1.16919 16238 ft 391 kts 238°
2026-05-06 09:35 51.31079 1.13279 16237 ft 390 kts 238°
2026-05-06 09:35 51.29580 1.09647 16236 ft 390 kts 238°
2026-05-06 09:35 51.28095 1.06052 16095 ft 391 kts 238°
2026-05-06 09:35 51.26588 1.02411 15622 ft 391 kts 237°
2026-05-06 09:36 51.25105 0.98831 15037 ft 388 kts 237°
2026-05-06 09:36 51.23636 0.95289 14447 ft 384 kts 237°
2026-05-06 09:36 51.22160 0.91737 13870 ft 381 kts 237°
2026-05-06 09:36 51.20706 0.88242 13295 ft 378 kts 237°
2026-05-06 09:37 51.19254 0.84758 12703 ft 375 kts 238°
2026-05-06 09:37 51.17819 0.81319 12158 ft 371 kts 238°
2026-05-06 09:37 51.16402 0.77927 11971 ft 368 kts 238°
2026-05-06 09:37 51.14988 0.74545 11947 ft 356 kts 238°
2026-05-06 09:38 51.13659 0.71376 11952 ft 338 kts 238°
2026-05-06 09:38 51.12389 0.68351 11946 ft 321 kts 238°
2026-05-06 09:38 51.11167 0.65444 11955 ft 305 kts 238°
2026-05-06 09:38 51.10010 0.62692 11952 ft 297 kts 238°
2026-05-06 09:39 51.08857 0.59948 11952 ft 298 kts 238°
2026-05-06 09:39 51.07723 0.57256 11595 ft 294 kts 238°
2026-05-06 09:39 51.06587 0.54559 10997 ft 295 kts 238°
2026-05-06 09:39 51.05445 0.51853 10603 ft 294 kts 238°
2026-05-06 09:40 51.04313 0.49171 10270 ft 292 kts 238°
2026-05-06 09:40 51.03388 0.46343 9878 ft 288 kts 258°
2026-05-06 09:40 51.02857 0.40235 9502 ft 272 kts 266°
2026-05-06 09:41 51.02651 0.37260 9174 ft 271 kts 267°
2026-05-06 09:41 51.02442 0.34294 8862 ft 270 kts 266°
2026-05-06 09:41 51.02226 0.31294 8551 ft 268 kts 266°
2026-05-06 09:41 51.02011 0.28348 8251 ft 267 kts 266°
2026-05-06 09:42 51.01793 0.25426 7968 ft 264 kts 266°
2026-05-06 09:42 51.01574 0.22527 7655 ft 264 kts 266°
2026-05-06 09:42 51.01354 0.19666 7356 ft 262 kts 266°
2026-05-06 09:42 51.01129 0.16778 7066 ft 260 kts 266°
2026-05-06 09:43 51.00906 0.13988 6981 ft 257 kts 266°
2026-05-06 09:43 51.00676 0.11139 6977 ft 260 kts 266°
2026-05-06 09:43 51.00445 0.08291 6979 ft 260 kts 266°
2026-05-06 09:43 51.00210 0.05408 6978 ft 259 kts 266°
2026-05-06 09:44 50.99977 0.02596 6983 ft 259 kts 266°
2026-05-06 09:44 50.99744 -0.00242 6983 ft 259 kts 266°
2026-05-06 09:44 50.99514 -0.03078 6983 ft 259 kts 266°
2026-05-06 09:44 50.99283 -0.05937 6984 ft 259 kts 266°
2026-05-06 09:45 50.99056 -0.08759 6982 ft 259 kts 266°
2026-05-06 09:45 50.98827 -0.11613 6980 ft 259 kts 266°
2026-05-06 09:45 50.98602 -0.14461 6983 ft 259 kts 266°
2026-05-06 09:45 50.98375 -0.17295 6977 ft 259 kts 266°
2026-05-06 09:46 50.98147 -0.20124 6974 ft 258 kts 266°
2026-05-06 09:46 50.97919 -0.22956 6909 ft 255 kts 269°
2026-05-06 09:46 50.97996 -0.25723 6563 ft 252 kts 280°
2026-05-06 09:46 50.98225 -0.28504 6246 ft 251 kts 281°
2026-05-06 09:47 50.98463 -0.31265 5906 ft 252 kts 281°
2026-05-06 09:47 50.98698 -0.34003 5583 ft 252 kts 281°
2026-05-06 09:47 50.98933 -0.36750 5475 ft 243 kts 281°
2026-05-06 09:47 50.99150 -0.39332 5435 ft 232 kts 281°
2026-05-06 09:48 50.99359 -0.41852 5223 ft 229 kts 282°
2026-05-06 09:48 50.99894 -0.44185 4859 ft 225 kts 310°
2026-05-06 09:48 51.01115 -0.45674 4525 ft 221 kts 338°
2026-05-06 09:48 51.02532 -0.46559 4308 ft 218 kts 341°
2026-05-06 09:49 51.03946 -0.47397 4174 ft 211 kts 341°
2026-05-06 09:49 51.05291 -0.48204 4140 ft 200 kts 341°
2026-05-06 09:49 51.06572 -0.48979 4011 ft 195 kts 341°
2026-05-06 09:49 51.07842 -0.49740 3759 ft 195 kts 346°
2026-05-06 09:50 51.09182 -0.49735 3481 ft 191 kts 22°
2026-05-06 09:50 51.10168 -0.48461 3425 ft 178 kts 49°
2026-05-06 09:50 51.10860 -0.46886 3242 ft 176 kts 62°
2026-05-06 09:50 51.11212 -0.45008 3020 ft 175 kts 74°
2026-05-06 09:51 51.11449 -0.43181 2980 ft 162 kts 73°
2026-05-06 09:51 51.11684 -0.41490 2826 ft 153 kts 72°
2026-05-06 09:51 51.11910 -0.39900 2639 ft 143 kts 72°
2026-05-06 09:51 51.12129 -0.38347 2458 ft 142 kts 72°
2026-05-06 09:52 51.12342 -0.36820 2282 ft 142 kts 72°
2026-05-06 09:52 51.12556 -0.35287 2091 ft 141 kts 72°
2026-05-06 09:52 51.12766 -0.33781 1902 ft 141 kts 72°
2026-05-06 09:52 51.12980 -0.32246 1711 ft 140 kts 72°
2026-05-06 09:53 51.13191 -0.30733 1520 ft 140 kts 73°
2026-05-06 09:53 51.13401 -0.29217 1324 ft 141 kts 73°
2026-05-06 09:53 51.13615 -0.27679 1123 ft 141 kts 73°
2026-05-06 09:53 51.13828 -0.26161 921 ft 141 kts 73°
2026-05-06 09:54 51.14037 -0.24635 721 ft 141 kts 73°
2026-05-06 09:54 51.14251 -0.23099 515 ft 141 kts 73°
2026-05-06 09:54 51.14460 -0.21592 338 ft 141 kts 75°
2026-05-06 09:54 51.14672 -0.20064 208 ft 134 kts 77°
2026-05-06 09:55 51.14829 -0.18929 207 ft 72 kts 78°
2026-05-06 09:55 51.14905 -0.18376 207 ft 43 kts 77°
2026-05-06 09:55 51.14975 -0.17963 207 ft 28 kts 61°
2026-05-06 09:55 51.15047 -0.17805 207 ft 12 kts 49°
2026-05-06 09:56 51.15085 -0.17762 207 ft 5 kts 17°
2026-05-06 09:56 51.15129 -0.17761 207 ft 7 kts 353°
2026-05-06 09:56 51.15184 -0.17770 206 ft 1 kts 354°
2026-05-06 09:56 51.15188 -0.17771 206 ft 0 kts 355°
2026-05-06 09:57 51.15189 -0.17771 206 ft 0 kts 355°
2026-05-06 09:57 51.15193 -0.17771 206 ft 1 kts 355°
2026-05-06 09:58 51.15218 -0.17776 206 ft 3 kts 341°
2026-05-06 09:58 51.15236 -0.17828 206 ft 7 kts 278°
2026-05-06 09:58 51.15236 -0.17909 206 ft 7 kts 262°
2026-05-06 09:58 51.15224 -0.17989 206 ft 7 kts 255°
2026-05-06 09:59 51.15225 -0.18067 206 ft 6 kts 300°
2026-05-06 09:59 51.15266 -0.18103 206 ft 7 kts 347°
2026-05-06 09:59 51.15318 -0.18122 206 ft 7 kts 347°
2026-05-06 09:59 51.15370 -0.18141 205 ft 7 kts 347°
2026-05-06 10:00 51.15422 -0.18159 205 ft 7 kts 347°
2026-05-06 10:00 51.15476 -0.18183 205 ft 8 kts 343°
2026-05-06 10:00 51.15525 -0.18205 205 ft 4 kts 346°
2026-05-06 10:00 51.15564 -0.18218 204 ft 7 kts 349°
2026-05-06 10:01 51.15619 -0.18230 204 ft 8 kts
2026-05-06 10:01 51.15673 -0.18200 204 ft 8 kts 33°
2026-05-06 10:01 51.15727 -0.18171 204 ft 8 kts
2026-05-06 10:01 51.15783 -0.18187 204 ft 8 kts 347°
2026-05-06 10:02 51.15840 -0.18209 204 ft 8 kts 346°
2026-05-06 10:02 51.15899 -0.18231 204 ft 8 kts 348°
2026-05-06 10:02 51.15957 -0.18251 204 ft 8 kts 348°
2026-05-06 10:02 51.16014 -0.18248 204 ft 8 kts 24°
2026-05-06 10:03 51.16047 -0.18181 204 ft 8 kts 78°
2026-05-06 10:03 51.16034 -0.18146 204 ft 4 kts 162°
2026-05-06 10:03 51.16000 -0.18134 204 ft 5 kts 168°
2026-05-06 10:03 51.15960 -0.18121 204 ft 6 kts 168°
2026-05-06 10:04 51.15945 -0.18116 204 ft 1 kts 168°
2026-05-06 10:04 51.15931 -0.18110 204 ft 2 kts 161°
2026-05-06 10:04 51.15920 -0.18097 204 ft 1 kts 127°
2026-05-06 10:04 51.15916 -0.18078 204 ft 2 kts 102°
2026-05-06 10:05 51.15914 -0.18040 204 ft 3 kts 89°
2026-05-06 10:05 51.15917 -0.18004 204 ft 0 kts 79°
2026-05-06 10:05 51.15918 -0.17993 203 ft 1 kts 78°
2026-05-06 10:05 51.15920 -0.17977 204 ft 1 kts 78°
2026-05-06 10:06 51.15922 -0.17962 204 ft 0 kts 78°